Location: Croydon
(51.3762°N, 0.0982°W)
Time: 14:58:44
(UTC+00:00)

XW-2F - Visible Passes

Search period start: 20 November 2019 00:00
Search period end: 30 November 2019 00:00
Orbit: 503 x 524 km, 97.5° (Epoch: 20 November)

Date Brightness Start Highest point End Pass type
(mag) Time Alt. Az. Time Alt. Az. Time Alt. Az.
20 Nov ? 06:01:38 10° NNE 06:05:21 55° E 06:09:05 10° S visible
20 Nov ? 16:46:22 10° SSE 16:49:59 54° ENE 16:53:38 10° N visible
20 Nov ? 18:22:07 10° SW 18:24:20 15° W 18:26:34 10° NW visible
21 Nov ? 05:46:10 10° NNE 05:49:43 37° E 05:53:15 10° SSE visible
21 Nov ? 18:05:43 10° SW 18:08:36 21° W 18:11:32 10° NW visible
22 Nov ? 05:30:49 10° NE 05:34:02 26° E 05:37:16 10° SSE visible
22 Nov ? 17:49:36 10° SSW 17:52:55 30° W 17:56:15 10° NNW visible
23 Nov ? 05:15:37 10° NE 05:18:20 18° E 05:21:03 10° SE visible
23 Nov ? 06:48:57 10° N 06:52:35 45° WNW 06:56:13 10° SW visible
23 Nov ? 17:33:41 10° S 17:37:14 44° W 17:40:51 10° NNW visible
24 Nov ? 05:00:45 10° ENE 05:02:36 13° E 05:04:25 10° ESE visible
24 Nov ? 06:33:15 10° N 06:37:02 67° WNW 06:40:48 10° SSW visible
24 Nov ? 17:17:55 10° S 17:21:36 67° WSW 17:25:21 10° NNW visible
25 Nov ? 06:17:38 10° NNE 06:21:28 83° ESE 06:25:16 10° SSW visible
25 Nov ? 17:02:19 10° SSE 17:06:00 82° ENE 17:09:46 10° NNW visible
25 Nov ? 18:39:55 10° W 18:40:35 10° W 18:41:16 10° WNW visible
26 Nov ? 06:02:06 10° NNE 06:05:51 56° E 06:09:35 10° S visible
26 Nov ? 16:46:49 10° SSE 16:50:27 55° ENE 16:54:08 10° N visible
26 Nov ? 18:22:36 10° SW 18:24:49 15° W 18:27:02 10° NW visible
27 Nov ? 05:46:37 10° NNE 05:50:12 38° E 05:53:46 10° SSE visible
27 Nov ? 16:31:27 10° SE 16:34:54 38° ENE 16:38:25 10° N visible
27 Nov ? 18:06:10 10° SW 18:09:04 21° W 18:12:00 10° NW visible
28 Nov ? 05:31:16 10° NE 05:34:31 26° E 05:37:46 10° SSE visible
28 Nov ? 17:50:03 10° SSW 17:53:22 30° W 17:56:43 10° NNW visible
29 Nov ? 05:16:03 10° NE 05:18:48 19° E 05:21:32 10° SE visible
29 Nov ? 06:49:23 10° N 06:53:02 45° WNW 06:56:41 10° SW visible
29 Nov ? 17:34:07 10° S 17:37:41 44° W 17:41:18 10° NNW visible
